Pasco, WA
on Tuesday, December 11, 2012

Tuesday
Previous Day Next Day
Daily Summary
 ActualAverageRecord
Temperature
Mean Temperature °F 33°F  
Max Temperature 47°F 40°F 63°F (2014)
Min Temperature 30°F 27°F 0°F (2009)
Degree Days
Heating Degree Days 26 32  
Month to date heating degree days 232 335  
Since 1 July heating degree days 1329 1564  
Cooling Degree Days 0 0  
Month to date cooling degree days 0 0  
Year to date cooling degree days 788 710  
Moisture
Dew Point 34°F   
Average Humidity 86    
Maximum Humidity 100    
Minimum Humidity 71    
Precipitation
Precipitation 0.08 in 0.03 in 0.57 in (1958)
Month to date precipitation 0.35 0.33  
Year to date precipitation 8.91 7.95  
Snow
Snow 0.00 in in in ()
Snow Depth 0.00 in   
Wind
Wind Speed 3 mph   
Max Wind Speed 16 mph   
Max Gust Speed 21 mph   
Visibility 8 miles   
Events Rain   

Key: T is trace of precipitation, MM is missing value
Source: NWS Daily Summary
Time(PST)TemperatureDew PointHumidity Pressure Visibility Wind DirectionWind SpeedGust SpeedPrecipitationEvents Conditions
12:14 AM 30.2°F 30.2°F 100% 30.05 in 1.0 miles Calm Calm - N/A   Mist
12:32 AM 30.2°F 30.2°F 100% 30.03 in 0.8 miles Calm Calm - N/A   Mist
12:37 AM 30.2°F 30.2°F 100% 30.03 in 1.0 miles Calm Calm - N/A   Mist
12:49 AM 30.2°F 28.4°F 93% 30.03 in 0.8 miles NW 3.5 mph - N/A   Mist
12:50 AM 30.2°F 28.4°F 93% 30.03 in 1.0 miles NW 3.5 mph - N/A   Mist
12:53 AM 30.0°F 28.9°F 96% 30.04 in 1.0 miles Calm Calm - N/A   Mist
1:00 AM 30.2°F 30.2°F 100% 30.02 in 1.8 miles Calm Calm - N/A   Partly Cloudy
1:06 AM 30.2°F 30.2°F 100% 30.01 in 3.0 miles Calm Calm - N/A   Partly Cloudy
1:53 AM 30.9°F 30.9°F 100% 30.00 in 10.0 miles Calm Calm - N/A   Clear
2:53 AM 32.0°F 30.9°F 96% 29.98 in 10.0 miles Calm Calm - 0.00 in   Clear
3:53 AM 30.9°F 30.9°F 100% 29.91 in 10.0 miles East 5.8 mph - N/A   Clear
4:53 AM 39.9°F 33.1°F 77% 29.88 in 10.0 miles NW 3.5 mph - N/A   Clear
5:53 AM 33.1°F 30.9°F 92% 29.84 in 10.0 miles North 5.8 mph - N/A   Clear
6:53 AM 33.1°F 30.9°F 92% 29.83 in 10.0 miles ENE 3.5 mph - N/A   Clear
7:53 AM 33.1°F 32.0°F 96% 29.80 in 10.0 miles Calm Calm - N/A   Clear
8:53 AM 34.0°F 33.1°F 96% 29.77 in 10.0 miles Calm Calm - N/A   Mostly Cloudy
9:53 AM 35.1°F 34.0°F 96% 29.75 in 9.0 miles NNW 3.5 mph - N/A   Clear
10:53 AM 36.0°F 34.0°F 93% 29.72 in 9.0 miles Calm Calm - N/A   Overcast
11:53 AM 37.9°F 36.0°F 93% 29.68 in 8.0 miles NNE 13.8 mph - N/A   Overcast
12:53 PM 39.0°F 36.0°F 89% 29.66 in 10.0 miles Calm Calm - N/A   Overcast
1:53 PM 43.0°F 36.0°F 76% 29.65 in 10.0 miles SSW 5.8 mph - N/A   Overcast
2:53 PM 46.0°F 37.0°F 71% 29.61 in 10.0 miles SW 11.5 mph - N/A   Overcast
3:53 PM 46.0°F 37.0°F 71% 29.61 in 10.0 miles WSW 12.7 mph - N/A   Overcast
4:53 PM 46.9°F 37.0°F 68% 29.60 in 10.0 miles SW 12.7 mph - N/A   Overcast
5:53 PM 46.0°F 37.0°F 71% 29.60 in 10.0 miles WSW 8.1 mph - N/A   Overcast
6:53 PM 44.1°F 39.0°F 82% 29.60 in 10.0 miles SW 9.2 mph - 0.01 in Rain Light Rain
7:53 PM 43.0°F 39.9°F 89% 29.61 in 8.0 miles SW 5.8 mph - 0.05 in Rain Light Rain
8:53 PM 43.0°F 39.9°F 89% 29.60 in 10.0 miles South 4.6 mph - 0.02 in   Overcast
9:53 PM 42.1°F 39.9°F 92% 29.60 in 10.0 miles South 5.8 mph - N/A   Overcast
10:53 PM 42.1°F 37.0°F 82% 29.60 in 10.0 miles South 5.8 mph - N/A   Partly Cloudy
11:53 PM 39.9°F 36.0°F 86% 29.60 in 10.0 miles SW 3.5 mph - N/A   Mostly Cloudy
Moon Phase
Dec. 11 Dec. 13 Dec. 20 Dec. 28 Jan. 04
Sunrise:07:29 AM (PST) Moon Rise:05:27 AM (PST)12/11
Sunset:04:10 PM (PST) Moon Set:02:55 PM (PST)12/11

Copyright © 2014 The Weather Underground, Inc.